Probability
0 0 0 0 0 0 0 0 0 0 0 0 0 0 0 0 0 0 0 0 0 0 0 0 0 0 0 0 0 0 0 0 0 0 0 0 0 0 0 0 0 0 0
0 0 0 0 0 0 0 0 0 0 0 0 0 0 0 0 0 0 0 0 0 0 0 0 0 0 0 0 0 0 0 0 0 0 0 0 0 0 0 0 0 0 0
0 0 0 0 0 0 0 0 0 0 0 0 0 0 0 0 0 0 0 0 0 0 0 0 0 0 0 0 0 0 0 0 0 0 0 0 0 0 0 0 0 0 0
0 0 0 0 0 0 0 0 0 0 0 0 0 0 0 0 0 0 0 0 0 0 0 0 0 0 0 0 0 0 0 0 0 0 0 0 0 0 0 0 0 0 0
0 0 0 0 0 0 0 0 0 0 0 0 0 0 0 0 0 0 0 0 0 0 0 0 0 0 0 0 0 0 0 0 0 0 0 0 0 0 0 0 0 0 0
0 0 0 0 0 0 0 0 0 0 0 0 0 0 0 0 0 0 0 0 0 0 0 0 0 0 0 0 0 0 0 0 0 0 0 0 0 0 0 0 0 0 0
0 0 0 0 0 0 0 0 0 0 0 0 0 0 0 0 0 0 0 0 0 0 0 0 0 0 0 0 0 0 0 0 0 0 0 0 0 0 0 0 0 0 0
0 0 0 0 0 0 0 0 0 0 0 0 0 0 0 0 0 0 0 0 0 0 0 0 0 0 0 0 0 0 0 0 0 0 0 0 0 0 0 0 0 0 0
0 0 0 0 0 0 0 0 0 0 0 0 0 0 0 0 0 0 0 0 0 0 0 0 0 0 0 0 0 0 0 0 0 0 0 0 0 0 0 0 0 0 0
0 0 0 0 0 0 0 0 0 0 0 0 0 0 0 0 0 0 0 0 0 0 0 0 0 0 0 0 0 0 0 0 0 0 0 0 0 0 0 0 0 0 0
0 0 0 0 0 0 0 0 0 0 0 0 0 0 0 0 0 0 0 0 0 0 0 0 0 0 0 0 0 0 0 0 0 0 0 0 0 0 0 0 0 0 0
0 0 0 0 0 0 0 0 0 1 1 0 0 0 0 0 0 0 0 0 0 0 0 0 0 0 0 0 0 0 0 0 0 0 0 0 0 0 0 0 0 0 0
1 0 0 0 0 0 0 1 1 2 1 0 0 0 0 0 0 0 0 0 0 0 0 0 0 0 0 0 0 0 0 0 0 0 0 0 0 0 0 0 0 0 0
2 1 1 1 1 0 1 1 2 2 1 0 0 0 0 0 0 0 0 0 0 0 0 0 0 0 0 0 0 0 0 0 0 0 0 0 0 0 0 0 0 0 0
2 1 1 2 2 2 1 1 1 1 1 1 1 1 0 0 0 0 0 0 0 0 0 0 0 0 0 0 0 0 0 0 0 0 0 0 0 0 0 0 0 0 0
1 0 1 2 3 2 1 1 2 2 2 3 3 2 1 1 1 0 0 0 0 0 0 0 0 0 0 0 0 0 0 0 0 0 0 0 0 0 0 0 0 0 0
0 0 0 1 1 1 0 2 4 4 3 4 6 6 3 2 2 2 1 1 1 1 0 0 0 0 0 0 0 0 0 0 0 0 0 0 0 0 0 0 0 0 0
0 0 0 0 0 0 1 2 4 5 5 7 11 10 7 5 5 5 5 4 3 3 2 0 0 0 0 0 0 0 0 0 0 0 0 0 0 0 0 0 0 0 0
0 0 0 0 0 1 1 3 5 7 10 13 17 16 13 12 12 11 10 8 6 6 4 1 0 0 0 0 0 0 0 0 0 0 0 0 0 0 0 0 0 0 0
0 0 0 0 0 1 2 4 6 9 13 18 21 20 20 21 21 19 17 13 11 10 7 3 1 0 0 0 0 0 0 0 0 0 0 0 0 0 0 0 0 0 0
0 0 0 0 0 1 2 4 6 9 12 17 20 22 24 25 27 28 25 22 21 18 12 6 3 1 0 0 0 0 0 0 0 0 0 0 0 0 0 0 0 0 0
0 0 0 0 0 1 2 4 6 8 10 13 18 23 26 28 32 35 34 31 29 27 20 12 6 4 2 1 1 1 0 0 0 0 0 0 0 0 0 0 0 0 0
0 0 0 0 1 1 1 4 6 8 9 11 17 22 25 30 36 39 39 37 35 32 25 16 10 8 7 5 3 2 1 1 0 0 0 0 0 0 0 0 0 0 0
0 0 1 1 1 1 2 2 4 6 7 9 14 19 22 27 34 39 41 40 38 34 26 17 12 11 9 8 6 4 3 2 1 0 0 0 0 0 0 0 0 0 0
0 0 1 2 2 2 2 1 2 3 4 7 11 15 19 24 29 35 40 41 39 34 26 18 15 12 9 7 6 5 4 4 2 1 0 0 0 0 0 0 1 1 1
0 0 0 1 2 2 2 1 1 2 2 5 10 13 17 24 28 32 38 41 39 34 27 21 16 11 7 6 6 6 6 6 5 3 1 0 0 0 0 1 2 2 2
Wind_Speed
10 12 14 12 11 11 10 10 10 10 10 9 9 9 8 8 7 6 6 5 5 4 4 3 3 3 3 3 3 4 4 5 5 5 5 5 5 5 5 4 2 6 8
13 13 14 12 12 11 11 10 10 10 9 9 9 8 8 7 7 6 5 5 4 4 3 3 3 3 3 3 3 4 4 5 5 5 3 5 6 5 5 4 4 6 7
14 14 14 12 12 11 11 11 10 10 9 9 8 8 7 7 7 6 5 5 4 4 3 3 3 4 3 3 3 4 4 5 5 3 2 3 7 6 4 4 5 6 6
13 12 12 13 11 11 11 10 10 10 9 8 8 7 7 6 6 6 5 5 4 4 4 3 4 4 4 3 3 4 4 5 4 2 1 5 5 7 4 4 4 5 5
12 11 12 12 11 10 10 10 10 9 9 8 7 7 6 6 6 5 5 5 4 4 4 3 3 4 4 3 3 3 4 5 3 3 4 4 5 6 5 4 4 4 4
10 10 12 11 10 10 10 9 9 9 8 8 7 7 6 6 5 5 5 5 4 4 3 3 3 3 3 3 3 3 4 3 5 3 3 3 5 6 5 5 4 4 4
10 9 11 10 9 9 9 9 9 9 8 8 7 7 6 6 5 5 4 4 4 4 3 3 3 3 3 3 3 3 3 2 2 3 2 3 6 5 5 5 5 5 5
8 7 9 10 8 8 8 8 9 8 8 8 7 7 6 6 5 4 4 4 3 3 3 3 3 3 3 3 2 2 2 5 3 2 3 4 6 4 5 5 5 5 5
6 6 6 8 9 9 8 8 8 9 9 8 8 7 7 6 6 5 4 4 3 3 3 2 2 2 3 2 2 2 2 2 2 1 2 4 5 3 4 4 4 5 5
4 4 4 4 5 7 9 10 9 9 9 9 9 8 8 7 7 6 7 6 4 4 3 3 2 3 2 2 2 2 2 6 2 2 2 6 4 3 3 4 4 5 5
2 3 4 5 5 5 5 6 9 10 10 10 10 10 9 8 9 9 7 5 5 5 4 3 3 3 3 4 2 2 5 3 3 1 3 6 2 3 3 4 4 4 5
4 4 5 6 6 7 5 5 6 7 7 9 8 9 8 7 5 5 8 6 6 6 5 4 3 5 8 6 7 7 5 4 3 2 5 4 1 3 3 4 4 4 5
6 6 7 7 7 7 5 5 4 4 5 7 9 8 7 6 5 6 5 8 9 9 8 8 8 7 6 4 3 5 3 3 2 2 6 4 1 2 3 4 4 4 5
9 8 8 8 7 7 7 5 5 5 5 5 7 9 7 5 6 5 5 5 5 5 5 5 5 6 6 7 7 6 5 3 2 1 5 4 1 2 3 4 4 4 5
10 10 9 9 8 7 7 6 6 6 6 7 6 7 8 6 7 7 6 5 6 5 6 6 6 7 7 7 6 5 5 5 3 2 4 6 2 1 2 4 4 4 5
11 11 9 9 8 7 6 6 6 6 6 7 7 9 10 8 7 7 7 6 6 6 6 6 8 6 6 6 5 5 5 5 3 3 2 6 5 2 1 3 4 4 5
11 10 10 9 8 8 7 7 5 6 7 6 7 9 10 10 9 8 7 7 7 7 8 7 8 6 6 6 7 7 6 5 4 5 4 2 5 6 3 2 3 4 5
11 11 10 9 9 9 8 7 6 6 7 6 6 7 10 11 11 8 7 7 7 6 6 6 6 7 7 7 6 6 5 5 6 4 4 5 3 4 7 5 3 3 3
11 11 11 10 10 9 9 7 7 7 7 6 6 7 9 10 10 8 7 7 8 6 7 7 7 7 7 6 6 5 5 5 5 6 6 6 5 4 4 8 6 4 3
11 11 10 10 10 9 7 6 5 6 6 6 6 7 9 8 9 8 7 9 8 6 7 7 8 7 6 6 7 6 6 5 6 6 6 5 5 6 5 5 6 7 6
12 12 11 11 10 8 6 6 5 5 5 5 5 8 9 9 9 9 7 8 7 7 8 9 7 8 7 6 6 5 6 8 7 6 6 6 6 6 6 6 5 4 6
13 13 12 11 10 9 6 6 5 6 5 5 5 6 7 8 8 8 9 8 8 7 9 9 8 6 6 6 6 4 5 6 6 7 7 6 7 6 7 7 7 6 5
13 13 11 12 10 9 8 6 5 4 4 4 4 4 5 6 7 8 9 8 8 8 7 8 9 9 6 6 6 5 4 5 3 5 8 7 7 5 6 7 8 8 7
13 13 12 12 11 10 8 6 7 5 5 5 4 4 5 5 6 6 8 8 8 6 7 8 9 7 7 6 5 6 6 3 3 3 5 6 7 7 7 6 7 7 7
13 12 12 12 11 10 9 8 7 6 6 5 4 4 4 3 4 4 5 6 6 6 6 7 8 9 7 7 6 5 6 4 6 4 4 4 5 6 6 6 5 5 6
13 12 12 12 11 11 10 9 8 8 7 6 5 4 3 2 2 3 4 4 5 5 7 7 7 8 7 8 7 6 5 5 5 5 5 4 4 4 4 4 4 4 4
Wind_Direction
153 147 139 146 140 136 131 130 131 132 135 140 144 147 151 154 154 153 151 154 159 161 159 151 141 126 112 104 102 101 100 94 90 86 84 81 83 96 97 102 156 114 103
148 146 142 147 144 140 137 135 134 132 133 136 139 141 142 145 146 143 143 146 147 149 151 151 138 125 118 114 109 106 101 97 92 84 89 112 93 89 96 83 25 83 107
146 144 149 150 147 144 141 139 138 136 137 139 141 143 145 147 148 147 151 149 145 139 137 137 137 126 119 115 110 104 99 98 94 93 243 103 102 89 93 100 92 100 109
146 148 149 147 150 148 147 145 142 140 142 143 145 147 150 152 151 151 152 151 148 144 136 131 130 122 114 108 106 103 106 105 101 228 190 70 84 87 90 106 104 112 117
146 148 138 151 153 154 152 149 147 147 148 150 152 152 152 154 154 155 152 146 144 139 131 122 122 123 118 108 101 105 112 113 138 240 71 71 73 82 84 91 97 106 115
148 150 142 158 159 160 157 156 157 158 158 159 158 157 159 161 162 162 154 148 141 135 128 122 124 124 124 115 103 106 115 138 217 97 85 86 85 85 84 93 99 103 111
153 152 149 161 166 166 165 167 169 169 169 170 169 169 169 168 165 164 160 154 147 140 132 121 122 126 124 119 117 117 125 201 239 113 112 88 80 89 88 89 91 98 101
154 160 154 159 176 178 179 181 181 181 181 181 180 181 179 177 174 172 171 165 159 146 129 122 122 127 127 125 128 132 159 258 169 132 112 96 82 96 91 87 86 93 100
158 173 182 173 181 188 194 196 194 194 193 193 193 191 192 192 188 184 181 180 175 160 144 131 128 131 126 128 136 140 150 290 262 137 132 101 98 105 101 93 91 94 99
176 193 213 205 216 205 196 198 207 208 206 206 205 202 200 201 199 193 203 184 191 184 173 154 141 138 133 130 137 148 180 228 205 155 123 97 106 120 117 107 100 100 100
251 248 245 245 239 250 244 205 210 215 216 216 213 208 209 215 205 196 198 162 201 200 189 179 169 158 176 163 153 189 226 222 137 151 87 84 120 135 133 123 115 111 109
335 306 284 274 262 252 249 241 232 226 217 223 223 211 217 224 221 229 134 185 213 211 201 193 186 201 225 192 169 207 211 181 190 154 97 92 131 144 138 133 132 129 123
349 342 323 302 281 271 257 254 245 241 234 237 237 227 225 229 220 220 196 188 203 207 209 179 203 215 216 201 206 202 199 204 181 153 107 107 139 157 148 144 143 145 141
356 349 336 321 301 284 268 256 254 250 246 242 238 239 228 228 235 222 219 214 210 207 213 216 222 207 223 208 207 204 182 213 187 155 104 110 137 177 164 158 156 155 155
359 351 341 330 320 304 285 268 257 250 252 251 243 245 236 231 233 227 223 213 223 219 207 216 223 210 217 219 218 219 201 194 195 196 123 124 130 173 175 173 169 165 163
353 347 343 336 329 316 297 276 267 266 255 255 248 242 242 235 236 234 233 221 222 221 220 218 217 211 218 218 221 227 234 210 200 201 160 146 151 153 175 180 173 172 170
345 339 339 334 332 322 307 292 275 264 263 256 253 251 246 240 238 235 237 228 220 216 216 219 214 219 219 215 217 223 221 223 213 203 184 181 162 160 164 184 179 174 173
345 340 337 332 330 325 315 299 284 269 259 254 253 252 251 244 238 237 235 234 227 218 218 211 220 217 216 221 219 214 216 205 230 225 198 187 186 167 161 160 173 174 179
345 341 338 336 331 325 315 301 286 277 264 259 255 249 249 247 240 232 231 231 226 215 217 214 213 219 221 222 228 222 229 213 219 220 219 207 185 190 174 147 168 175 180
346 343 340 336 330 324 314 304 296 283 273 263 258 251 248 245 239 234 230 230 227 216 217 218 215 218 228 223 233 226 225 224 224 226 233 222 215 197 198 178 184 173 177
349 347 342 338 335 330 322 315 308 300 290 275 265 262 252 244 238 230 231 231 224 219 219 219 216 216 221 223 229 230 229 230 230 213 227 229 218 210 212 204 208 189 171
348 347 342 339 337 331 323 312 297 296 290 288 278 265 255 247 241 233 228 227 223 221 220 220 219 219 217 215 220 220 231 224 224 227 220 229 234 209 220 215 204 201 203
348 345 339 336 333 332 327 316 309 296 283 279 277 272 263 249 239 231 226 225 223 217 216 215 215 215 213 215 223 212 219 226 208 215 220 223 232 230 225 227 221 208 201
348 345 341 340 337 336 332 329 320 310 303 301 296 281 274 258 241 232 229 225 224 217 214 214 214 212 211 212 219 228 237 242 216 213 210 218 221 229 233 226 230 228 212
351 349 346 346 345 346 344 339 328 322 314 309 301 287 282 272 244 226 226 220 216 212 215 218 216 212 212 215 211 212 224 231 240 237 224 211 214 221 229 234 230 231 221
357 355 353 350 351 350 347 347 345 338 331 329 325 311 295 284 252 222 219 213 210 209 213 216 218 215 216 222 220 214 210 211 217 221 231 225 225 220 219 226 236 230 227